DateTimeUTC,F1_A11,F1_S11,BsB_S11,BsG_S11,BsR_S11,BbsB_S11,BbsG_S11,BbsR_S11,BaB_A11,BaG_A11,BaR_A11,Tu_S11,T_S11,Uu_S11,U_S11,P_S11,T1_A11
2021-05-28T07:00:00Z,00000200,20000000,,,,,,,0000.56,0000.13,-000.22,17.5,24.1,11.1,07.4,0675.4,30.8
2021-05-28T07:01:00Z,00000200,20000000,,,,,,,-000.29,0000.22,0000.12,17.4,24.1,11.2,07.4,0675.4,30.8
2021-05-28T07:02:00Z,00000200,20000000,,,,,,,0000.08,0000.02,0000.64,17.4,24.1,11.2,07.4,0675.4,30.8
2021-05-28T07:03:00Z,00000200,60000000,,,,,,,0000.12,0000.13,-000.36,17.4,24.1,11.2,07.4,0675.4,30.8
2021-05-28T07:04:00Z,00000200,40000000,0001.05,0000.56,-000.00,0000.19,-000.01,-000.10,0000.75,0000.30,0000.55,17.5,23.9,11.1,07.5,0676.3,30.8
2021-05-28T07:05:00Z,00000200,00000000,0000.08,0000.62,0000.41,-000.35,-000.01,0000.34,0000.13,0000.26,0000.19,17.6,23.9,11.2,07.6,0676.1,30.8
2021-05-28T07:06:00Z,00000200,00000000,0001.11,0000.35,0000.16,-000.20,0000.14,-000.19,0000.56,0000.62,0000.34,17.6,23.9,11.2,07.6,0676.0,30.8
2021-05-28T07:07:00Z,00000200,00000000,0000.75,0000.51,0000.50,-000.18,0000.04,-000.26,0000.38,0000.44,0000.28,17.6,23.9,11.3,07.7,0676.0,30.8
2021-05-28T07:08:00Z,00000200,00000000,0001.11,0000.74,0000.44,0000.18,0000.01,0000.18,0000.21,-000.24,0000.34,17.7,23.9,11.3,07.7,0676.0,30.8
2021-05-28T07:09:00Z,00000200,00000000,0000.04,0000.73,0000.53,-000.28,0000.18,-000.11,0000.49,0000.88,0000.42,17.7,23.9,11.2,07.6,0676.0,30.8
2021-05-28T07:10:00Z,00000200,00000000,0000.61,0000.55,0000.46,-000.28,0000.41,0000.11,0000.70,0000.43,-000.04,17.7,23.9,11.1,07.6,0676.0,30.8
2021-05-28T07:11:00Z,00000200,00000000,0001.24,0000.48,0000.05,-000.16,0000.21,-000.14,0000.42,-000.04,0000.79,17.7,23.9,11.3,07.7,0675.9,30.8
2021-05-28T07:12:00Z,00000200,00000000,0000.78,0000.61,0000.24,-000.34,0000.12,0000.19,0000.29,0000.52,-000.20,17.8,23.9,11.2,07.7,0675.9,30.8
2021-05-28T07:13:00Z,00000200,00000000,0000.72,0000.92,0000.61,0000.19,0000.08,-000.02,0000.05,0000.60,0000.36,17.7,23.9,11.2,07.7,0676.0,30.8
2021-05-28T07:14:00Z,00000200,00000000,0000.83,0000.60,0000.41,-000.01,0000.02,-000.09,0000.76,0000.24,0000.08,17.7,23.9,11.2,07.7,0676.0,30.8
2021-05-28T07:15:00Z,00000200,00000000,0000.98,0000.57,0000.42,0000.01,0000.13,-000.05,0000.08,0000.37,0000.43,17.7,23.9,11.1,07.6,0675.9,30.8
2021-05-28T07:16:00Z,00000200,00000000,0000.99,0000.41,0000.55,-000.30,-000.33,-000.15,0000.51,0000.10,0000.15,17.8,23.9,11.1,07.6,0675.8,30.8
2021-05-28T07:17:00Z,00000200,00000000,0000.73,0000.72,0000.34,-000.37,0000.22,-000.08,0000.12,0000.30,0000.18,17.7,23.9,11.1,07.6,0675.9,30.8
2021-05-28T07:18:00Z,00000200,00000000,0000.43,0000.76,0000.12,-000.13,0000.05,-000.30,0000.27,0000.26,0000.10,17.7,23.9,11.1,07.6,0675.9,30.8
2021-05-28T07:19:00Z,00000200,00000000,0000.57,0000.45,0000.43,-000.07,-000.09,0000.09,0000.42,0000.15,0000.34,17.7,23.9,11.1,07.6,0676.1,30.8
2021-05-28T07:20:00Z,00000200,00000000,0000.80,0000.62,0000.29,0000.10,-000.05,0000.26,0000.71,0000.56,0000.33,17.7,23.9,11.0,07.5,0676.1,30.8
2021-05-28T07:21:00Z,00000200,00000000,0000.56,0000.68,0000.38,-000.14,0000.33,0000.20,0000.26,0000.45,0000.27,17.7,23.9,11.1,07.6,0676.1,30.8
2021-05-28T07:22:00Z,00000200,00000000,-000.14,0000.59,0000.38,-000.01,0000.09,-000.05,0000.13,0000.29,0000.22,17.7,23.9,11.0,07.6,0676.1,30.8
2021-05-28T07:23:00Z,00000200,00000000,0000.22,0000.54,0000.42,0000.21,0000.15,-000.04,0000.37,0000.35,0000.45,17.8,23.9,11.2,07.7,0676.1,30.8
2021-05-28T07:24:00Z,00000200,00000000,0001.08,0000.18,-000.02,0000.25,0000.12,0000.05,0000.35,0000.48,0000.11,17.8,23.9,11.3,07.7,0676.0,30.8
2021-05-28T07:25:00Z,00000200,00000000,0000.62,0000.37,0000.34,-000.33,0000.08,-000.24,0000.44,0000.13,0000.15,17.8,23.9,11.2,07.7,0676.1,30.8
2021-05-28T07:26:00Z,00000200,00000000,-000.05,0000.30,0000.19,0000.02,0000.12,-000.27,0000.33,0000.13,0000.30,17.8,23.9,11.1,07.6,0676.1,30.8
2021-05-28T07:27:00Z,00000200,00000000,0000.52,0000.60,0000.45,-000.20,0000.24,0000.09,0000.22,0000.37,0000.31,17.8,24.0,11.1,07.6,0676.1,30.8
2021-05-28T07:28:00Z,00000200,00000000,0000.48,0000.45,0000.24,0000.04,0000.14,0000.14,0000.33,0000.34,-000.06,17.8,24.0,11.1,07.6,0676.1,30.8
2021-05-28T07:29:00Z,00000200,00000000,0000.07,0000.63,0000.48,-000.02,0000.25,-000.18,0000.27,0000.41,-000.14,17.8,24.0,11.0,07.6,0676.1,30.8
2021-05-28T07:30:00Z,00000200,00000000,0000.61,0000.58,0000.15,-000.39,0000.17,0000.07,0000.13,0000.07,0000.63,17.8,23.9,11.1,07.6,0675.9,30.8
2021-05-28T07:31:00Z,00000200,00000000,0000.33,0000.43,0000.27,-000.25,-000.03,-000.14,0000.18,0000.12,0000.02,17.8,23.9,11.0,07.6,0675.9,30.8
2021-05-28T07:32:00Z,00000200,00000000,0000.73,0000.37,0000.19,-000.54,0000.01,-000.16,0000.48,0000.20,0000.13,17.8,23.9,11.1,07.6,0675.9,30.8
2021-05-28T07:33:00Z,00000200,00000000,-000.10,0000.28,0000.30,0000.14,-000.04,0000.13,0000.46,0000.44,0000.56,17.8,23.9,11.1,07.6,0675.9,30.8
2021-05-28T07:34:00Z,00000200,00000000,0000.45,0000.37,0000.53,-000.11,0000.11,0000.25,0000.05,0000.24,-000.16,17.8,23.9,11.1,07.6,0675.9,30.8
2021-05-28T07:35:00Z,00000200,00000000,0000.47,0000.63,0000.18,-000.29,0000.09,-000.12,0000.31,0000.05,0000.25,17.8,23.9,11.1,07.6,0675.9,30.8
2021-05-28T07:36:00Z,00000200,00000000,0000.74,0000.61,0000.17,-000.40,0000.18,-000.15,0000.42,0000.45,0000.62,17.8,23.9,11.1,07.6,0675.9,30.8
2021-05-28T07:37:00Z,00000200,00000000,0000.89,0000.32,0000.49,0000.19,0000.06,-000.17,0000.30,0000.20,0000.08,17.8,23.9,11.1,07.6,0676.0,30.8
2021-05-28T07:38:00Z,00000200,00000000,0001.04,0000.47,0000.42,0000.16,0000.09,-000.06,0000.12,0000.41,-000.07,17.8,23.9,11.1,07.6,0676.0,30.8
2021-05-28T07:39:00Z,00000200,00000000,0000.64,0000.35,0000.50,-000.08,0000.16,-000.04,0000.43,0000.20,0000.36,17.8,23.9,11.1,07.6,0676.0,30.8
2021-05-28T07:40:00Z,00000200,00000000,0000.36,0000.67,0000.47,0000.02,0000.00,0000.17,0000.19,-000.02,-000.13,17.8,23.9,11.1,07.6,0675.8,30.8
2021-05-28T07:41:00Z,00000200,00000000,0000.57,0000.05,-000.08,0000.22,0000.04,0000.07,0000.59,0000.43,0000.38,17.8,23.9,11.2,07.7,0675.8,30.8
2021-05-28T07:42:00Z,00000200,00000000,0000.65,0000.68,0000.17,-000.28,0000.32,-000.06,0000.37,0000.36,0000.57,17.8,23.9,11.2,07.7,0675.8,30.8
2021-05-28T07:43:00Z,00000200,00000000,0000.44,0000.51,0000.63,0000.16,0000.03,0000.08,0000.54,0000.58,0000.23,17.8,23.9,11.1,07.6,0675.8,30.8
2021-05-28T07:44:00Z,00000200,00000000,0000.53,0000.79,0000.31,0000.00,-000.04,-000.24,-000.30,0000.18,0000.10,17.8,23.9,11.2,07.7,0675.8,30.8
2021-05-28T07:45:00Z,00000200,00000000,0000.59,0000.50,0000.47,0000.10,0000.16,0000.05,0000.73,0000.45,0000.05,17.8,23.9,11.2,07.7,0675.7,30.8
2021-05-28T07:46:00Z,00000200,00000000,0000.50,0000.39,0000.24,0000.03,0000.03,0000.18,0000.27,0000.29,0000.29,17.8,23.9,11.2,07.7,0675.8,30.8
2021-05-28T07:47:00Z,00000200,00000000,0000.56,0000.31,0000.41,-000.68,0000.27,0000.00,0000.29,0000.20,0000.18,17.8,23.9,11.1,07.7,0675.7,30.8
2021-05-28T07:48:00Z,00000200,00000000,0000.66,0000.83,0000.29,-000.23,0000.35,-000.04,0000.61,0000.27,0000.36,17.8,23.9,11.2,07.7,0675.7,30.8
2021-05-28T07:49:00Z,00000200,00000000,0000.15,0000.62,0000.28,-000.27,0000.24,0000.12,0000.35,0000.41,0000.45,17.8,23.9,11.2,07.7,0675.8,30.8
2021-05-28T07:50:00Z,00000200,00000000,0000.68,0000.56,0000.54,0000.15,-000.15,0000.20,0000.53,0000.58,0000.47,17.8,23.9,11.1,07.7,0675.9,30.8
2021-05-28T07:51:00Z,00000200,00000000,0001.20,0000.47,0000.50,0000.10,0000.40,0000.21,0000.09,0000.49,0000.17,17.8,23.9,11.2,07.7,0675.9,30.8
2021-05-28T07:52:00Z,00000200,00000000,0001.32,0000.60,0000.43,-000.14,0000.06,-000.12,0000.64,0000.10,0000.36,17.8,23.9,11.2,07.7,0675.7,30.8
2021-05-28T07:53:00Z,00000200,00000000,0000.69,0000.51,0000.63,-000.27,0000.07,-000.26,0000.36,0000.42,0000.04,17.8,23.9,11.0,07.6,0675.6,30.8
2021-05-28T07:54:00Z,00000200,00000000,0000.39,0000.53,0000.17,-000.01,0000.02,-000.36,0000.35,0000.44,-000.02,17.8,23.9,11.0,07.6,0675.4,30.8
2021-05-28T07:55:00Z,00000200,00000000,0000.04,0000.44,0000.32,0000.04,0000.04,0000.16,0000.08,0000.04,0000.62,17.8,23.9,11.1,07.6,0675.4,30.8
2021-05-28T07:56:00Z,00000200,00000000,0000.55,0000.52,0000.37,0000.13,0000.30,-000.19,0000.69,0000.66,-000.05,17.8,23.9,11.0,07.6,0675.6,30.8
2021-05-28T07:57:00Z,00000200,40000000,,,,,,,0000.13,-000.20,0000.43,17.9,23.9,10.4,07.2,0675.6,30.8
2021-05-28T07:58:00Z,00000200,60000000,,,,,,,-000.07,0000.44,-000.15,17.6,24.0,11.2,07.6,0674.6,30.8
2021-05-28T07:59:00Z,00000200,20000000,,,,,,,0000.09,-000.06,0000.15,17.6,24.1,11.1,07.4,0674.6,30.8
